Wind_Speed
21 21 21 22 22 22 22 22 22 22 22 22 22 22 22 21 21 20 20 20 20 20 20 20 20 19 19 19 19 19 19 19 19 19 19 20 20 20 21 21 21 21 21 20 20 20 20 20 19 19 18 17
19 21 22 23 23 24 24 24 24 24 24 24 24 24 24 24 23 23 22 22 22 22 22 22 22 21 21 21 21 21 21 21 21 21 21 22 22 22 22 22 22 22 22 22 22 22 22 21 21 21 20 20
17 19 21 22 23 24 25 25 25 25 25 25 25 25 25 25 25 25 24 24 24 24 23 24 24 23 23 23 23 23 23 23 24 24 24 24 24 23 23 23 23 24 24 24 24 24 24 23 23 23 23 22
15 17 18 20 21 23 24 25 25 26 26 25 26 26 26 26 26 26 26 26 25 25 25 25 25 25 25 25 25 26 26 26 26 26 26 26 26 25 25 25 25 25 25 25 25 26 26 26 25 25 25 25
14 15 17 18 19 21 22 24 25 25 26 26 26 26 27 27 27 27 27 27 27 27 26 26 26 26 26 26 26 27 27 27 28 28 28 27 27 27 27 26 26 26 26 27 27 27 27 27 27 27 27 27
15 16 17 18 18 19 21 22 24 25 26 26 26 27 27 28 28 28 28 28 27 27 27 27 27 27 26 26 27 27 28 29 29 29 29 29 29 28 28 28 28 28 28 28 28 28 28 29 29 29 29 30
16 17 18 18 19 20 20 21 22 24 25 26 27 27 28 28 29 29 29 29 28 28 28 28 28 28 28 28 28 29 29 30 30 31 31 31 31 30 30 30 30 30 29 29 29 29 30 30 30 31 31 31
18 18 19 19 20 21 21 21 22 23 24 25 26 28 28 29 29 29 30 29 29 29 29 29 30 30 30 30 31 31 31 31 32 32 33 33 33 33 33 33 33 32 32 32 31 31 31 31 32 32 32 33
19 19 20 21 22 22 22 22 23 24 25 25 26 27 28 28 29 30 30 30 30 30 30 30 31 31 31 32 32 32 33 33 33 33 34 34 34 35 35 35 35 36 35 35 35 34 34 34 34 34 34 34
20 21 22 22 23 23 24 24 24 24 25 26 26 27 28 28 29 29 30 30 30 31 31 31 31 31 31 32 32 33 33 33 34 34 35 35 35 36 37 37 37 38 38 38 38 37 37 37 36 36 36 36
21 22 23 23 24 25 25 25 25 25 26 26 27 27 28 29 29 30 30 30 31 31 32 32 32 32 32 32 33 33 34 34 34 35 35 36 36 37 37 37 38 38 39 39 39 39 39 39 39 39 38 38
23 23 24 24 25 26 26 26 26 27 27 26 26 27 28 28 29 30 30 31 31 32 32 33 33 33 33 33 33 34 34 34 35 35 35 36 36 37 37 37 37 38 38 39 39 39 40 40 40 40 40 40
25 24 25 25 26 26 27 27 27 27 27 27 27 27 27 28 28 29 30 30 31 31 32 32 32 33 33 33 33 34 34 34 35 35 35 36 36 37 37 37 37 37 37 38 38 38 39 39 40 41 41 42
28 26 26 26 27 27 27 28 28 28 28 28 28 28 28 27 28 28 29 29 30 31 32 32 32 32 32 33 33 33 34 34 35 35 35 36 36 37 37 38 38 37 37 37 38 38 38 39 39 41 42 43
31 29 28 28 29 28 29 29 29 29 29 29 29 30 29 28 28 28 28 29 29 30 31 31 32 32 32 32 33 33 34 34 34 35 35 36 36 37 37 38 38 38 38 38 38 39 39 40 40 41 42 43
34 32 30 30 30 30 31 31 30 30 30 30 31 31 30 30 30 29 28 28 29 29 30 30 31 31 31 32 33 34 34 35 35 35 35 36 36 37 37 38 39 39 40 40 40 41 41 42 42 42 43 44
35 33 32 31 32 32 32 32 32 32 32 31 32 31 32 31 31 30 29 29 29 29 29 30 30 31 31 32 33 34 35 35 36 36 36 36 37 37 37 38 39 40 41 41 42 43 43 43 43 43 44 44
37 35 33 33 33 33 33 34 34 33 32 32 32 32 33 32 32 31 31 31 30 30 30 30 30 31 32 33 33 34 35 36 36 37 37 37 38 38 38 38 39 39 40 41 42 42 43 43 43 44 44 45
38 36 35 34 34 34 34 35 34 34 33 33 32 33 33 33 33 33 32 32 31 31 31 30 31 31 32 33 34 35 35 36 37 37 38 38 39 39 39 40 40 40 41 41 42 42 43 43 43 44 45 45
38 37 36 35 35 35 36 35 35 34 34 33 32 33 33 33 33 33 33 32 32 31 31 31 31 32 32 33 34 35 36 37 37 37 38 38 39 40 40 41 42 42 43 43 43 44 44 45 45 45 46 46
37 37 37 37 37 37 37 36 36 35 34 33 32 33 34 34 33 32 32 32 31 31 32 32 32 32 33 34 35 36 36 37 37 37 37 38 39 40 40 41 42 43 44 44 45 45 45 46 46 46 46 47
36 38 38 38 38 39 38 38 37 36 35 34 33 34 34 34 32 32 31 31 31 32 33 33 33 33 34 34 35 36 36 36 36 36 37 38 39 39 40 40 41 42 43 44 45 45 46 46 46 46 46 46
37 39 40 40 41 41 40 40 38 37 36 35 34 35 34 33 32 32 32 31 32 33 34 34 34 34 35 35 36 36 36 36 36 36 36 37 38 39 40 40 40 41 42 43 44 45 46 46 45 45 45 45
37 40 42 43 43 43 42 41 40 38 37 36 36 35 34 33 33 34 33 32 33 34 34 34 35 35 36 36 37 37 37 37 37 36 36 37 38 39 39 39 40 41 41 42 43 45 46 46 45 45 44 44
38 39 41 43 44 43 42 42 41 39 38 37 37 35 34 34 35 35 34 34 34 35 35 35 35 36 36 37 37 37 38 38 38 38 37 38 38 39 39 39 39 40 41 42 43 45 46 46 46 45 45 45
40 40 42 43 43 42 42 42 41 39 39 38 37 35 35 35 36 36 36 36 35 36 36 36 36 36 36 37 37 38 39 39 39 39 39 39 39 39 39 39 39 40 41 42 43 44 46 47 46 46 46 46
42 43 43 42 42 41 42 42 41 41 40 38 36 36 36 37 38 38 37 37 37 37 37 37 36 36 37 38 39 40 40 40 41 41 40 40 40 39 39 40 40 41 42 43 43 44 45 47 47 47 46 46
43 44 44 43 42 42 43 42 42 41 40 37 37 37 38 39 39 39 38 38 38 38 38 37 37 38 39 40 41 41 42 42 42 42 41 41 41 40 40 40 41 42 43 44 44 45 45 46 47 47 47 46
42 43 43 43 43 44 44 43 42 40 38 38 39 40 40 40 39 39 39 39 39 38 38 38 39 40 41 42 43 43 43 43 42 42 42 42 42 42 42 41 42 43 44 45 45 46 46 46 46 46 46 46
42 42 42 42 42 43 43 43 41 39 40 42 41 40 39 39 39 40 40 39 39 38 38 39 40 41 43 44 45 45 45 44 44 44 43 44 45 45 44 43 43 43 44 45 45 46 46 46 46 46 45 45
42 41 40 40 41 42 42 41 40 41 43 43 41 40 40 40 41 41 41 40 38 39 39 40 41 42 44 46 46 47 47 47 46 45 45 45 46 46 46 45 44 44 44 44 45 46 46 46 46 45 44 44
Wind_Direction
256 257 258 260 261 263 265 265 265 265 265 265 265 265 266 266 266 266 266 266 266 266 266 266 265 264 263 262 262 263 264 266 268 270 272 273 274 275 275 276 277 277 278 279 280 281 281 281 280 279 277 275
260 259 258 259 260 262 264 265 265 265 265 264 263 264 265 265 266 267 267 267 268 268 268 268 267 266 266 265 264 264 265 266 268 269 271 271 272 272 273 273 274 275 275 275 276 276 276 276 276 275 273 272
267 265 263 262 262 262 263 263 263 264 264 263 262 261 262 263 265 266 267 268 268 269 269 269 269 268 268 267 267 267 268 269 269 270 270 271 271 271 271 271 272 272 273 273 273 273 273 272 272 272 270 269
271 270 268 267 266 265 264 264 263 262 261 261 259 258 258 260 262 263 264 265 266 267 268 269 269 268 268 267 267 268 268 269 270 270 271 271 271 271 271 270 271 271 271 272 272 272 271 270 270 269 269 268
274 273 272 271 269 268 266 265 264 262 260 259 257 256 256 258 259 261 262 263 263 264 265 266 267 268 268 267 267 268 268 268 268 269 269 271 271 271 270 270 271 271 272 272 272 272 271 270 269 268 267 267
274 273 272 272 271 270 268 266 265 263 262 260 258 256 256 257 258 260 261 261 262 262 263 264 265 266 266 266 267 267 267 267 267 267 267 268 269 270 270 270 270 271 272 273 272 272 271 270 268 267 265 265
274 273 272 272 272 270 269 268 267 266 264 262 261 260 259 259 259 261 261 262 262 262 263 264 265 265 266 266 267 267 267 266 266 265 265 266 267 268 268 269 270 271 272 273 273 273 271 270 268 266 264 263
274 273 273 271 270 269 269 269 269 268 266 265 264 263 263 262 262 263 263 263 263 263 263 264 264 265 265 266 266 266 266 266 265 265 265 265 266 267 268 269 270 271 272 273 273 273 273 271 269 267 265 263
277 275 273 271 269 269 268 268 268 268 268 267 267 266 266 265 265 265 264 264 264 264 264 264 264 264 265 265 266 266 266 266 266 266 266 266 267 268 268 269 270 271 272 273 274 274 274 273 272 269 267 265
279 278 275 272 271 269 267 266 266 267 268 268 268 268 268 267 267 267 267 267 267 267 267 267 267 267 267 268 268 268 268 268 267 267 267 268 268 269 269 270 271 272 273 273 274 274 274 274 273 271 270 267
279 278 277 275 273 271 269 266 265 265 266 267 268 268 268 268 268 268 268 269 269 269 270 270 270 270 270 270 271 271 271 271 270 270 270 270 270 270 270 271 272 272 273 273 274 274 274 274 273 272 271 269
276 276 276 275 274 272 270 268 266 264 264 265 267 267 267 268 268 268 269 269 269 270 270 270 271 272 272 272 273 273 273 273 273 273 273 273 273 272 272 273 273 274 274 274 274 274 274 274 274 273 272 271
273 273 273 273 273 272 271 270 268 266 264 264 265 266 266 266 266 267 267 268 268 268 269 270 271 272 273 274 275 275 275 275 275 275 274 274 274 274 273 274 275 275 274 274 274 274 274 274 274 273 272 271
271 271 272 272 271 271 271 270 269 268 266 264 263 264 264 264 265 265 266 266 267 267 268 270 271 273 274 276 277 278 278 278 277 276 275 275 274 273 273 273 274 274 273 273 274 275 275 274 274 273 272 272
270 270 270 270 271 271 270 270 269 269 267 265 264 263 262 263 264 264 265 266 266 267 269 271 272 274 275 277 278 278 279 279 278 278 277 276 274 273 273 272 272 272 272 272 273 274 274 274 274 273 272 272
269 268 268 269 270 270 270 270 270 269 268 267 265 263 262 261 262 263 264 265 266 267 269 271 272 274 276 277 277 278 279 279 279 279 278 277 276 275 273 272 271 271 270 270 271 272 272 273 273 272 272 271
267 267 267 267 268 269 270 271 271 270 269 267 266 264 262 261 261 262 262 263 265 266 268 269 271 272 274 274 275 276 277 277 278 278 278 277 276 275 274 273 272 271 270 270 270 270 270 270 270 271 271 271
267 266 265 266 267 268 270 271 272 272 270 268 266 264 263 262 262 261 262 262 263 265 266 267 269 270 271 272 273 273 274 275 275 275 276 276 275 275 274 273 272 271 270 270 270 269 269 269 269 269 270 271
268 267 265 265 266 267 269 270 271 271 270 268 265 264 263 262 262 261 261 261 262 264 265 266 268 269 270 271 271 272 272 272 272 272 272 272 273 273 273 273 272 271 271 270 270 270 269 269 269 269 270 271
269 269 267 266 266 267 268 269 270 271 270 269 266 264 262 261 260 260 260 261 263 264 266 267 267 268 269 270 270 270 270 270 270 270 270 270 270 270 270 271 271 271 271 271 271 270 270 270 270 270 271 272
269 269 269 267 267 267 268 270 271 270 270 269 267 264 261 260 259 260 261 262 264 265 266 267 268 269 270 271 271 270 269 268 268 267 267 267 267 267 268 268 269 270 271 271 271 271 271 270 270 271 271 272
267 268 269 268 268 268 269 270 270 270 269 268 265 262 260 258 259 260 261 263 265 266 267 269 270 272 272 272 271 270 268 267 267 267 266 266 266 266 266 267 268 268 269 270 270 270 270 271 271 271 271 271
268 267 267 267 267 268 269 270 270 269 267 264 261 259 258 258 259 260 261 264 266 268 269 271 272 273 272 271 270 269 267 266 266 267 267 267 267 266 266 267 267 268 269 269 270 270 270 271 271 272 272 272
271 269 268 267 267 268 269 269 268 265 263 262 259 258 258 258 259 260 262 264 266 269 271 272 272 272 272 270 269 268 267 266 266 268 269 269 268 268 267 267 268 269 270 270 270 271 271 271 271 272 273 273
272 271 270 268 267 268 268 267 266 264 263 262 260 259 259 259 260 261 262 264 267 270 271 272 272 272 271 271 270 269 268 267 267 268 269 270 269 268 268 268 269 270 271 271 271 271 272 272 272 272 272 272
273 273 271 270 268 267 266 266 266 265 263 262 261 260 260 261 261 262 263 265 268 271 272 272 271 271 271 272 271 271 270 269 269 269 270 270 269 269 269 269 270 270 271 271 271 272 272 273 273 272 272 272
273 272 270 270 268 266 266 266 266 264 264 262 261 261 261 261 261 262 264 267 269 271 272 271 271 272 272 273 273 272 271 271 270 270 271 271 270 270 271 271 270 270 270 270 270 270 271 272 273 273 272 271
272 271 270 269 267 265 265 265 264 264 263 261 259 258 258 258 260 262 265 268 270 271 272 271 272 273 274 275 275 275 274 273 273 273 273 272 271 272 273 273 273 272 271 271 270 269 269 270 271 273 273 272
271 270 268 268 266 265 266 265 264 263 261 257 255 255 256 259 262 265 267 269 271 272 272 273 274 276 278 279 279 279 279 278 277 277 276 275 274 274 275 276 275 274 273 272 270 269 268 267 268 270 271 271
270 269 267 267 266 266 266 265 263 261 258 255 255 257 261 263 265 266 268 269 271 272 273 274 276 278 280 281 282 283 283 282 281 280 280 279 278 277 276 277 276 276 275 274 272 270 268 267 266 267 268 268
269 267 266 265 264 264 264 263 261 259 257 258 260 262 264 265 266 267 268 270 271 272 273 275 277 279 280 282 283 284 284 284 283 283 283 283 282 280 279 279 279 278 278 277 275 273 271 268 267 266 266 266
Height
5848 5848 5848 5848 5848 5848 5849 5849 5849 5849 5850 5850 5850 5851 5851 5852 5852 5852 5852 5852 5853 5853 5854 5854 5855 5855 5856 5856 5857 5857 5858 5858 5858 5859 5859 5859 5859 5859 5859 5860 5860 5860 5861 5861 5861 5862 5862 5862 5862 5862 5862 5862
5847 5847 5847 5847 5847 5847 5847 5847 5847 5847 5848 5848 5849 5849 5849 5850 5850 5850 5850 5850 5850 5851 5851 5851 5852 5853 5853 5854 5854 5855 5855 5856 5856 5856 5857 5857 5857 5858 5858 5858 5858 5858 5859 5859 5859 5860 5860 5860 5860 5860 5860 5860
5845 5845 5845 5845 5845 5845 5845 5845 5845 5845 5845 5846 5846 5847 5847 5847 5848 5848 5848 5848 5848 5849 5849 5849 5850 5850 5850 5851 5851 5852 5852 5853 5853 5854 5854 5855 5855 5855 5855 5856 5856 5856 5856 5857 5857 5857 5857 5858 5858 5858 5858 5859
5843 5843 5843 5843 5843 5843 5843 5843 5843 5843 5843 5844 5844 5844 5845 5845 5845 5846 5846 5846 5846 5847 5847 5847 5847 5848 5848 5848 5849 5849 5850 5850 5851 5851 5851 5852 5852 5852 5853 5853 5854 5854 5854 5854 5854 5855 5855 5855 5855 5856 5856 5856
5841 5841 5841 5841 5841 5841 5841 5841 5840 5841 5841 5841 5841 5842 5842 5842 5843 5843 5844 5844 5844 5845 5845 5845 5845 5846 5846 5846 5846 5847 5847 5847 5848 5848 5849 5849 5849 5850 5850 5850 5851 5851 5851 5852 5852 5852 5852 5853 5853 5853 5853 5853
5839 5839 5839 5839 5839 5838 5838 5838 5838 5838 5838 5839 5839 5839 5839 5840 5840 5840 5841 5841 5842 5842 5842 5843 5843 5843 5843 5843 5844 5844 5844 5844 5845 5845 5846 5846 5847 5847 5847 5848 5848 5848 5849 5849 5849 5849 5849 5850 5850 5850 5850 5851
5837 5836 5836 5836 5836 5836 5836 5836 5836 5836 5836 5836 5836 5836 5836 5837 5837 5837 5838 5838 5839 5839 5839 5840 5840 5840 5840 5840 5841 5841 5841 5841 5842 5842 5843 5843 5843 5844 5844 5845 5845 5845 5846 5846 5846 5846 5846 5847 5847 5847 5847 5848
5834 5834 5834 5833 5833 5833 5833 5833 5833 5833 5833 5833 5833 5833 5833 5834 5834 5834 5834 5835 5835 5836 5836 5836 5836 5837 5837 5837 5838 5838 5838 5838 5839 5839 5839 5840 5840 5841 5841 5841 5841 5842 5842 5842 5843 5843 5843 5843 5843 5844 5844 5844
5832 5832 5831 5831 5830 5830 5830 5830 5830 5829 5829 5830 5830 5830 5830 5830 5831 5831 5831 5831 5832 5832 5832 5833 5833 5833 5834 5834 5834 5834 5835 5835 5835 5836 5836 5836 5836 5837 5837 5837 5838 5838 5838 5839 5839 5839 5839 5839 5840 5840 5840 5840
5830 5829 5829 5828 5828 5827 5827 5827 5827 5827 5826 5827 5827 5827 5827 5827 5827 5828 5828 5828 5828 5828 5828 5829 5829 5829 5830 5830 5830 5831 5831 5831 5831 5832 5832 5832 5833 5833 5833 5833 5834 5834 5834 5834 5835 5835 5835 5835 5836 5836 5836 5836
5827 5827 5826 5826 5825 5825 5824 5824 5824 5824 5824 5824 5824 5824 5824 5824 5824 5824 5824 5824 5825 5825 5825 5825 5825 5825 5826 5826 5826 5827 5827 5827 5827 5828 5828 5828 5829 5829 5829 5829 5829 5829 5829 5830 5830 5830 5831 5831 5831 5832 5832 5832
5824 5824 5823 5823 5823 5822 5821 5821 5821 5821 5821 5821 5821 5821 5821 5821 5821 5821 5821 5821 5821 5821 5821 5821 5822 5822 5822 5822 5822 5823 5823 5823 5823 5823 5824 5824 5824 5824 5824 5825 5825 5825 5825 5825 5825 5826 5826 5826 5827 5827 5828 5828
5821 5821 5821 5820 5820 5819 5819 5819 5818 5818 5818 5818 5818 5818 5818 5818 5818 5818 5818 5818 5818 5818 5818 5818 5818 5818 5818 5818 5818 5818 5819 5819 5819 5819 5820 5820 5820 5820 5820 5820 5821 5821 5821 5821 5821 5821 5821 5822 5822 5822 5823 5823
5818 5818 5818 5817 5816 5816 5816 5816 5815 5815 5815 5815 5815 5815 5815 5815 5815 5815 5815 5815 5815 5815 5815 5815 5815 5815 5815 5814 5814 5814 5814 5815 5815 5815 5815 5816 5816 5816 5816 5816 5816 5817 5817 5817 5817 5817 5817 5817 5817 5818 5818 5818
5815 5815 5814 5814 5813 5813 5813 5812 5812 5812 5812 5812 5812 5812 5812 5812 5812 5812 5812 5812 5812 5812 5811 5811 5811 5811 5811 5811 5811 5811 5811 5811 5811 5811 5811 5811 5812 5812 5812 5812 5812 5813 5813 5813 5813 5813 5813 5813 5813 5813 5813 5813
5811 5811 5811 5810 5810 5809 5809 5808 5809 5809 5809 5809 5809 5809 5809 5809 5809 5809 5809 5809 5809 5808 5808 5808 5808 5808 5808 5808 5808 5808 5807 5807 5807 5807 5807 5807 5807 5808 5808 5808 5808 5808 5809 5809 5809 5809 5809 5809 5809 5809 5809 5809
5807 5807 5807 5806 5806 5806 5805 5805 5805 5805 5805 5805 5805 5805 5805 5805 5806 5806 5806 5805 5805 5805 5805 5805 5805 5805 5805 5805 5805 5805 5804 5804 5803 5803 5803 5803 5803 5803 5804 5804 5804 5804 5804 5804 5804 5804 5804 5804 5804 5804 5804 5804
5802 5802 5802 5802 5802 5802 5801 5801 5801 5801 5801 5801 5802 5802 5801 5802 5802 5802 5802 5802 5802 5802 5802 5802 5802 5802 5802 5802 5802 5801 5801 5800 5800 5800 5799 5799 5799 5799 5799 5799 5799 5799 5799 5799 5799 5799 5799 5799 5799 5799 5799 5799
5798 5798 5798 5798 5798 5798 5798 5797 5797 5797 5797 5797 5798 5798 5798 5798 5798 5798 5798 5798 5799 5799 5799 5799 5799 5799 5799 5798 5798 5798 5797 5797 5796 5796 5796 5796 5795 5795 5795 5795 5795 5794 5794 5794 5794 5794 5794 5794 5794 5795 5794 5794
5793 5793 5793 5793 5794 5794 5793 5793 5793 5793 5793 5793 5794 5794 5794 5793 5793 5794 5794 5795 5795 5795 5795 5795 5795 5795 5795 5794 5794 5793 5793 5793 5792 5792 5792 5791 5791 5791 5791 5790 5790 5789 5789 5789 5789 5789 5789 5789 5789 5789 5789 5789
5789 5788 5788 5788 5789 5789 5789 5789 5789 5789 5788 5789 5789 5789 5789 5789 5789 5790 5790 5790 5791 5791 5791 5791 5791 5791 5790 5790 5790 5789 5789 5788 5788 5788 5787 5787 5787 5786 5786 5786 5785 5785 5784 5784 5784 5784 5784 5784 5784 5784 5784 5784
5785 5785 5784 5784 5784 5784 5785 5785 5784 5784 5784 5784 5785 5784 5784 5784 5785 5785 5786 5786 5786 5786 5786 5786 5786 5786 5785 5785 5784 5784 5784 5783 5783 5783 5783 5782 5782 5782 5782 5781 5781 5780 5780 5779 5779 5779 5778 5779 5779 5779 5779 5779
5781 5781 5780 5779 5779 5779 5780 5780 5780 5780 5779 5779 5779 5779 5780 5780 5781 5781 5781 5781 5781 5781 5781 5781 5781 5781 5780 5780 5779 5779 5779 5779 5778 5778 5778 5778 5778 5777 5777 5777 5776 5776 5775 5775 5774 5773 5773 5773 5774 5774 5774 5774
5777 5776 5775 5775 5774 5775 5775 5775 5775 5775 5774 5774 5774 5775 5775 5776 5776 5776 5776 5777 5776 5776 5776 5776 5776 5775 5775 5774 5774 5774 5774 5774 5773 5773 5773 5773 5773 5772 5772 5772 5772 5771 5771 5770 5769 5769 5768 5768 5769 5769 5769 5769
5772 5771 5771 5770 5770 5770 5770 5770 5770 5770 5770 5769 5769 5770 5771 5771 5771 5771 5772 5771 5771 5771 5771 5771 5770 5770 5769 5769 5769 5768 5768 5768 5768 5768 5768 5768 5768 5767 5767 5767 5767 5767 5766 5765 5764 5764 5763 5763 5764 5764 5764 5764
5767 5767 5766 5765 5765 5765 5765 5765 5765 5766 5765 5765 5765 5766 5766 5767 5766 5766 5766 5766 5766 5766 5766 5765 5765 5765 5764 5764 5763 5763 5762 5762 5762 5762 5762 5762 5762 5762 5762 5762 5762 5762 5761 5760 5759 5759 5757 5757 5758 5758 5759 5758
5762 5761 5761 5760 5760 5760 5760 5761 5761 5761 5761 5761 5761 5761 5761 5761 5761 5761 5761 5762 5762 5761 5761 5760 5760 5759 5759 5758 5758 5757 5757 5756 5756 5756 5756 5756 5756 5757 5757 5757 5757 5756 5756 5755 5754 5754 5752 5751 5751 5752 5753 5753
5756 5755 5755 5755 5756 5756 5755 5756 5756 5756 5757 5757 5756 5756 5756 5755 5755 5756 5756 5757 5756 5756 5755 5755 5754 5754 5753 5753 5752 5752 5752 5751 5751 5751 5751 5751 5751 5751 5751 5751 5751 5751 5750 5750 5749 5748 5747 5746 5745 5746 5747 5747
5751 5750 5750 5750 5750 5750 5751 5751 5751 5752 5752 5751 5750 5750 5750 5750 5751 5751 5752 5752 5751 5751 5750 5750 5749 5749 5748 5747 5747 5747 5747 5747 5747 5746 5746 5746 5745 5745 5745 5745 5745 5745 5744 5744 5743 5743 5742 5742 5741 5740 5741 5741
5746 5745 5745 5745 5745 5745 5745 5745 5746 5747 5746 5745 5745 5745 5746 5746 5746 5746 5746 5746 5746 5745 5745 5744 5744 5743 5742 5742 5741 5741 5741 5741 5741 5741 5741 5741 5740 5740 5739 5739 5739 5738 5738 5738 5738 5737 5737 5737 5736 5736 5735 5735
5741 5740 5740 5739 5739 5739 5739 5740 5741 5740 5739 5739 5740 5741 5741 5741 5741 5741 5741 5741 5740 5740 5739 5739 5738 5738 5737 5736 5736 5735 5735 5735 5735 5735 5735 5735 5734 5734 5734 5734 5733 5733 5733 5733 5733 5733 5732 5731 5731 5731 5730 5730